QPF
0.04 0.05 0.04 0.03 0.03 0.07 0.15 0.21 0.17 0.13 0.09 0.08 0.07 0.04 0.03 0.02 0.02 0.02 0.03 0.03 0.03 0.02 0.02 0.02 0.02 0.03 0.03 0.03 0.03 0.03 0.04 0.05 0.06 0.06 0.05 0.04 0.05 0.06
0.04 0.05 0.05 0.04 0.04 0.08 0.11 0.10 0.09 0.09 0.08 0.05 0.05 0.04 0.02 0.02 0.01 0.01 0.01 0.02 0.02 0.02 0.02 0.02 0.02 0.03 0.03 0.03 0.04 0.05 0.04 0.04 0.03 0.03 0.02 0.02 0.03 0.04
0.03 0.03 0.04 0.07 0.06 0.05 0.07 0.07 0.07 0.09 0.08 0.05 0.03 0.02 0.02 0.02 0.01 0.01 0.02 0.02 0.02 0.03 0.03 0.04 0.03 0.04 0.04 0.04 0.03 0.04 0.04 0.03 0.03 0.02 0.02 0.01 0.01 0.02
0.04 0.04 0.06 0.06 0.06 0.05 0.05 0.05 0.05 0.06 0.07 0.06 0.05 0.02 0.01 0.01 0.01 0.01 0.02 0.02 0.01 0.02 0.03 0.04 0.04 0.04 0.04 0.04 0.04 0.04 0.04 0.04 0.03 0.02 0.02 0.01 0.01 0.01
0.07 0.06 0.06 0.05 0.07 0.06 0.04 0.03 0.03 0.04 0.04 0.03 0.04 0.04 0.03 0.02 0.02 0.02 0.02 0.02 0.01 0.02 0.03 0.02 0.02 0.02 0.02 0.03 0.03 0.03 0.03 0.03 0.03 0.03 0.02 0.02 0.01 0.01
0.06 0.05 0.06 0.05 0.06 0.06 0.04 0.03 0.03 0.03 0.03 0.03 0.02 0.03 0.03 0.03 0.03 0.03 0.03 0.02 0.01 0.01 0.02 0.02 0.02 0.01 0.01 0.01 0.02 0.02 0.02 0.02 0.02 0.03 0.03 0.03 0.02 0.01
0.07 0.06 0.06 0.07 0.07 0.05 0.03 0.01 0.02 0.02 0.03 0.03 0.02 0.02 0.03 0.03 0.02 0.02 0.02 0.01 0.01 0.01 0.02 0.02 0.01 0.01 0.01 0.01 0.01 0.02 0.02 0.03 0.03 0.02 0.02 0.02 0.02 0.01
0.07 0.08 0.07 0.08 0.07 0.05 0.03 0.02 0.01 0.02 0.02 0.02 0.01 0.02 0.03 0.03 0.02 0.02 0.01 0.01 0.01 0.01 0.02 0.01 0.01 0.01 0.01 0.01 0.02 0.02 0.02 0.03 0.03 0.03 0.02 0.02 0.02 0.02
0.04 0.06 0.06 0.05 0.05 0.05 0.05 0.03 0.02 0.02 0.02 0.02 0.01 0.02 0.03 0.02 0.03 0.02 0.02 0.01 0.00 0.01 0.02 0.01 0.01 0.01 0.01 0.01 0.01 0.02 0.02 0.03 0.03 0.03 0.02 0.02 0.02 0.02
0.03 0.04 0.03 0.03 0.03 0.03 0.03 0.03 0.02 0.01 0.01 0.01 0.01 0.01 0.02 0.01 0.02 0.02 0.01 0.01 0.01 0.01 0.02 0.01 0.01 0.01 0.01 0.01 0.02 0.02 0.02 0.03 0.03 0.03 0.02 0.02 0.02 0.02
0.02 0.02 0.02 0.02 0.03 0.04 0.03 0.02 0.01 0.01 0.03 0.02 0.02 0.02 0.02 0.02 0.02 0.01 0.01 0.01 0.01 0.01 0.02 0.02 0.01 0.01 0.01 0.01 0.01 0.02 0.02 0.02 0.02 0.02 0.02 0.02 0.02 0.02
0.02 0.02 0.02 0.03 0.03 0.03 0.02 0.01 0.01 0.02 0.04 0.03 0.03 0.03 0.02 0.02 0.02 0.02 0.01 0.01 0.01 0.01 0.01 0.01 0.01 0.01 0.01 0.01 0.01 0.01 0.01 0.01 0.01 0.01 0.01 0.01 0.01 0.01
0.03 0.03 0.04 0.04 0.03 0.03 0.02 0.01 0.01 0.03 0.04 0.04 0.04 0.04 0.03 0.02 0.02 0.02 0.02 0.01 0.01 0.00 0.01 0.01 0.00 0.01 0.01 0.01 0.01 0.01 0.01 0.01 0.01 0.01 0.01 0.00 0.01 0.01
0.01 0.03 0.04 0.05 0.04 0.03 0.03 0.02 0.02 0.02 0.03 0.05 0.06 0.06 0.05 0.03 0.01 0.01 0.01 0.01 0.01 0.01 0.01 0.01 0.01 0.00 0.01 0.01 0.01 0.01 0.01 0.01 0.01 0.01 0.01 0.01 0.01 0.01
0.02 0.02 0.04 0.05 0.04 0.04 0.03 0.03 0.02 0.01 0.01 0.01 0.02 0.02 0.04 0.03 0.01 0.01 0.01 0.01 0.01 0.01 0.01 0.01 0.01 0.01 0.01 0.01 0.01 0.01 0.01 0.01 0.01 0.01 0.01 0.01 0.01 0.01
0.02 0.03 0.04 0.06 0.04 0.02 0.03 0.03 0.01 0.01 0.00 0.00 0.01 0.01 0.02 0.02 0.01 0.01 0.01 0.01 0.01 0.01 0.01 0.01 0.01 0.01 0.01 0.01 0.01 0.01 0.01 0.01 0.01 0.01 0.02 0.02 0.02 0.02
0.03 0.02 0.03 0.04 0.04 0.02 0.02 0.02 0.02 0.01 0.01 0.00 0.01 0.01 0.02 0.02 0.02 0.02 0.03 0.02 0.02 0.02 0.01 0.02 0.02 0.02 0.01 0.02 0.01 0.01 0.01 0.01 0.01 0.02 0.02 0.02 0.02 0.02
0.03 0.02 0.03 0.04 0.04 0.04 0.04 0.03 0.02 0.02 0.02 0.01 0.01 0.01 0.01 0.01 0.01 0.02 0.03 0.02 0.02 0.03 0.03 0.02 0.03 0.04 0.03 0.03 0.03 0.02 0.01 0.01 0.01 0.02 0.02 0.02 0.02 0.02
0.02 0.02 0.03 0.04 0.05 0.05 0.05 0.04 0.02 0.02 0.03 0.03 0.02 0.02 0.02 0.01 0.02 0.03 0.02 0.01 0.02 0.02 0.02 0.02 0.02 0.04 0.04 0.03 0.03 0.03 0.03 0.02 0.02 0.02 0.02 0.02 0.02 0.02
0.01 0.01 0.02 0.02 0.05 0.05 0.04 0.03 0.02 0.02 0.03 0.04 0.04 0.03 0.03 0.02 0.02 0.02 0.03 0.02 0.02 0.02 0.02 0.01 0.01 0.03 0.04 0.04 0.04 0.03 0.03 0.04 0.03 0.02 0.02 0.02 0.02 0.02
0.02 0.02 0.01 0.01 0.03 0.06 0.03 0.02 0.01 0.01 0.01 0.02 0.03 0.03 0.03 0.03 0.02 0.01 0.02 0.03 0.04 0.04 0.03 0.02 0.02 0.04 0.05 0.05 0.05 0.04 0.04 0.04 0.04 0.03 0.02 0.02 0.01 0.01
0.03 0.02 0.01 0.01 0.02 0.04 0.05 0.02 0.01 0.01 0.01 0.01 0.01 0.01 0.02 0.02 0.02 0.02 0.02 0.02 0.03 0.04 0.04 0.03 0.04 0.05 0.06 0.06 0.06 0.04 0.04 0.04 0.04 0.03 0.03 0.02 0.02 0.01
0.03 0.03 0.02 0.02 0.02 0.02 0.03 0.04 0.02 0.01 0.01 0.01 0.01 0.01 0.01 0.01 0.01 0.02 0.02 0.02 0.03 0.03 0.04 0.04 0.05 0.05 0.05 0.06 0.07 0.06 0.05 0.04 0.03 0.02 0.02 0.01 0.01 0.01
MSLP
1009.02 1009.30 1009.74 1010.29 1010.90 1011.52 1012.11 1012.63 1013.07 1013.44 1013.76 1014.05 1014.34 1014.65 1014.99 1015.37 1015.76 1016.17 1016.58 1016.99 1017.39 1017.78 1018.16 1018.55 1018.94 1019.33 1019.72 1020.10 1020.46 1020.81 1021.12 1021.41 1021.66 1021.89 1022.08 1022.25 1022.40 1022.52
1008.11 1008.32 1008.70 1009.21 1009.81 1010.45 1011.07 1011.65 1012.17 1012.63 1013.04 1013.41 1013.77 1014.13 1014.50 1014.90 1015.30 1015.72 1016.14 1016.56 1016.98 1017.40 1017.81 1018.23 1018.65 1019.08 1019.50 1019.91 1020.31 1020.68 1021.02 1021.33 1021.61 1021.86 1022.09 1022.28 1022.45 1022.59
1007.23 1007.38 1007.70 1008.16 1008.73 1009.37 1010.02 1010.65 1011.25 1011.79 1012.29 1012.75 1013.19 1013.62 1014.04 1014.48 1014.91 1015.36 1015.80 1016.25 1016.69 1017.13 1017.58 1018.02 1018.46 1018.90 1019.34 1019.76 1020.15 1020.53 1020.88 1021.20 1021.50 1021.77 1022.02 1022.24 1022.43 1022.59
1006.38 1006.47 1006.74 1007.15 1007.69 1008.31 1008.98 1009.65 1010.31 1010.93 1011.52 1012.06 1012.59 1013.09 1013.58 1014.07 1014.56 1015.04 1015.52 1016.00 1016.47 1016.95 1017.41 1017.86 1018.31 1018.75 1019.17 1019.58 1019.96 1020.32 1020.66 1020.98 1021.28 1021.56 1021.83 1022.07 1022.30 1022.49
1005.57 1005.63 1005.84 1006.21 1006.71 1007.31 1007.97 1008.66 1009.36 1010.04 1010.70 1011.33 1011.93 1012.51 1013.07 1013.63 1014.17 1014.71 1015.24 1015.76 1016.27 1016.76 1017.24 1017.70 1018.14 1018.56 1018.95 1019.32 1019.67 1019.99 1020.31 1020.61 1020.91 1021.20 1021.49 1021.76 1022.01 1022.24
1004.79 1004.83 1005.01 1005.33 1005.79 1006.36 1007.01 1007.70 1008.42 1009.14 1009.84 1010.53 1011.19 1011.84 1012.47 1013.09 1013.69 1014.29 1014.87 1015.43 1015.98 1016.50 1016.99 1017.44 1017.87 1018.25 1018.61 1018.93 1019.23 1019.52 1019.81 1020.09 1020.39 1020.69 1020.99 1021.30 1021.59 1021.86
1004.03 1004.06 1004.22 1004.52 1004.95 1005.48 1006.11 1006.79 1007.50 1008.23 1008.96 1009.68 1010.39 1011.08 1011.76 1012.43 1013.09 1013.74 1014.37 1014.98 1015.56 1016.10 1016.60 1017.05 1017.45 1017.80 1018.12 1018.40 1018.65 1018.91 1019.16 1019.43 1019.73 1020.04 1020.37 1020.71 1021.05 1021.36
1003.26 1003.31 1003.48 1003.76 1004.17 1004.68 1005.28 1005.94 1006.64 1007.36 1008.09 1008.82 1009.54 1010.26 1010.97 1011.68 1012.38 1013.07 1013.74 1014.38 1014.99 1015.55 1016.05 1016.50 1016.88 1017.21 1017.49 1017.73 1017.96 1018.18 1018.42 1018.69 1018.99 1019.32 1019.68 1020.06 1020.44 1020.79
1002.46 1002.56 1002.75 1003.05 1003.46 1003.96 1004.54 1005.18 1005.85 1006.56 1007.27 1007.99 1008.71 1009.43 1010.16 1010.88 1011.60 1012.32 1013.01 1013.68 1014.31 1014.88 1015.39 1015.84 1016.21 1016.52 1016.77 1016.99 1017.20 1017.41 1017.64 1017.91 1018.23 1018.59 1018.98 1019.40 1019.81 1020.21
1001.65 1001.80 1002.04 1002.38 1002.81 1003.32 1003.89 1004.52 1005.18 1005.87 1006.56 1007.26 1007.96 1008.68 1009.40 1010.12 1010.85 1011.57 1012.28 1012.96 1013.59 1014.17 1014.68 1015.12 1015.49 1015.79 1016.03 1016.25 1016.45 1016.66 1016.90 1017.19 1017.52 1017.91 1018.33 1018.78 1019.22 1019.65
1000.84 1001.06 1001.37 1001.76 1002.23 1002.76 1003.35 1003.98 1004.64 1005.30 1005.98 1006.66 1007.35 1008.04 1008.75 1009.46 1010.18 1010.90 1011.60 1012.28 1012.92 1013.50 1014.01 1014.44 1014.81 1015.11 1015.35 1015.57 1015.78 1016.00 1016.25 1016.55 1016.91 1017.31 1017.75 1018.21 1018.67 1019.11
1000.10 1000.38 1000.75 1001.20 1001.72 1002.29 1002.91 1003.55 1004.21 1004.87 1005.54 1006.20 1006.87 1007.55 1008.23 1008.93 1009.64 1010.34 1011.04 1011.71 1012.33 1012.91 1013.41 1013.85 1014.21 1014.52 1014.77 1014.99 1015.21 1015.44 1015.71 1016.02 1016.38 1016.79 1017.23 1017.69 1018.15 1018.58
999.49 999.82 1000.24 1000.74 1001.30 1001.91 1002.55 1003.21 1003.88 1004.54 1005.20 1005.85 1006.51 1007.17 1007.84 1008.52 1009.21 1009.90 1010.58 1011.23 1011.85 1012.41 1012.91 1013.35 1013.71 1014.02 1014.28 1014.51 1014.74 1014.98 1015.25 1015.56 1015.92 1016.32 1016.74 1017.18 1017.61 1018.02
999.10 999.44 999.89 1000.41 1001.00 1001.63 1002.29 1002.95 1003.61 1004.27 1004.92 1005.56 1006.20 1006.85 1007.51 1008.17 1008.85 1009.52 1010.19 1010.83 1011.43 1011.99 1012.48 1012.91 1013.27 1013.58 1013.85 1014.09 1014.33 1014.57 1014.84 1015.14 1015.47 1015.84 1016.23 1016.62 1017.01 1017.38
999.00 999.33 999.76 1000.28 1000.86 1001.48 1002.12 1002.76 1003.40 1004.03 1004.66 1005.28 1005.90 1006.53 1007.17 1007.83 1008.49 1009.16 1009.81 1010.44 1011.03 1011.57 1012.05 1012.48 1012.84 1013.16 1013.43 1013.68 1013.92 1014.16 1014.42 1014.70 1015.00 1015.32 1015.66 1016.00 1016.33 1016.65
999.27 999.54 999.93 1000.40 1000.92 1001.49 1002.08 1002.66 1003.25 1003.83 1004.40 1004.98 1005.57 1006.18 1006.80 1007.43 1008.08 1008.73 1009.37 1009.99 1010.57 1011.10 1011.58 1012.00 1012.37 1012.69 1012.97 1013.22 1013.46 1013.70 1013.95 1014.20 1014.47 1014.75 1015.03 1015.30 1015.57 1015.82
999.97 1000.16 1000.45 1000.83 1001.27 1001.73 1002.22 1002.71 1003.20 1003.69 1004.19 1004.70 1005.23 1005.79 1006.38 1006.99 1007.61 1008.24 1008.87 1009.47 1010.04 1010.56 1011.03 1011.45 1011.82 1012.14 1012.43 1012.69 1012.94 1013.18 1013.41 1013.65 1013.88 1014.11 1014.34 1014.56 1014.76 1014.94
1001.12 1001.21 1001.40 1001.65 1001.95 1002.28 1002.63 1002.98 1003.34 1003.70 1004.09 1004.51 1004.96 1005.44 1005.97 1006.53 1007.12 1007.72 1008.32 1008.89 1009.44 1009.95 1010.41 1010.82 1011.19 1011.52 1011.81 1012.08 1012.34 1012.58 1012.81 1013.04 1013.25 1013.46 1013.64 1013.81 1013.95 1014.08
1002.72 1002.70 1002.76 1002.88 1003.02 1003.19 1003.37 1003.55 1003.75 1003.96 1004.21 1004.50 1004.84 1005.24 1005.68 1006.18 1006.70 1007.25 1007.80 1008.33 1008.85 1009.32 1009.76 1010.16 1010.51 1010.84 1011.14 1011.42 1011.68 1011.94 1012.18 1012.40 1012.61 1012.80 1012.96 1013.10 1013.20 1013.29
1004.70 1004.58 1004.52 1004.49 1004.47 1004.47 1004.47 1004.47 1004.49 1004.54 1004.64 1004.78 1004.99 1005.28 1005.62 1006.02 1006.46 1006.93 1007.40 1007.88 1008.33 1008.76 1009.15 1009.51 1009.84 1010.16 1010.45 1010.73 1011.00 1011.26 1011.52 1011.76 1011.97 1012.16 1012.32 1012.44 1012.53 1012.59
1006.95 1006.74 1006.57 1006.41 1006.25 1006.08 1005.91 1005.74 1005.59 1005.48 1005.41 1005.41 1005.49 1005.64 1005.86 1006.14 1006.48 1006.84 1007.22 1007.60 1007.97 1008.32 1008.65 1008.95 1009.24 1009.51 1009.78 1010.05 1010.32 1010.58 1010.84 1011.09 1011.32 1011.53 1011.70 1011.83 1011.92 1011.99
1009.29 1009.03 1008.77 1008.50 1008.22 1007.92 1007.60 1007.29 1006.99 1006.73 1006.52 1006.38 1006.32 1006.34 1006.43 1006.58 1006.79 1007.03 1007.29 1007.56 1007.82 1008.07 1008.30 1008.52 1008.74 1008.95 1009.17 1009.40 1009.64 1009.89 1010.15 1010.40 1010.64 1010.86 1011.05 1011.20 1011.32 1011.40
1011.54 1011.24 1010.93 1010.59 1010.22 1009.83 1009.41 1008.99 1008.58 1008.21 1007.88 1007.62 1007.44 1007.33 1007.29 1007.31 1007.39 1007.49 1007.62 1007.76 1007.89 1008.01 1008.13 1008.24 1008.36 1008.48 1008.62 1008.79 1008.98 1009.19 1009.42 1009.66 1009.89 1010.12 1010.32 1010.50 1010.64 1010.76
Thickness
5712 5710 5709 5709 5708 5707 5705 5702 5695 5688 5687 5691 5692 5695 5695 5695 5694 5693 5692 5692 5691 5690 5688 5687 5686 5685 5683 5681 5680 5678 5676 5675 5674 5673 5671 5670 5669 5667
5709 5707 5706 5705 5705 5704 5703 5701 5698 5692 5686 5688 5689 5691 5692 5692 5691 5690 5689 5688 5687 5686 5685 5683 5682 5680 5679 5677 5676 5674 5672 5671 5670 5669 5667 5666 5664 5663
5704 5703 5702 5702 5700 5700 5699 5697 5695 5692 5686 5685 5687 5687 5687 5687 5686 5685 5684 5684 5683 5682 5681 5679 5678 5676 5674 5673 5671 5669 5668 5667 5666 5665 5664 5662 5660 5658
5700 5699 5698 5698 5697 5695 5695 5694 5692 5690 5686 5682 5681 5681 5681 5682 5681 5680 5680 5679 5678 5677 5676 5675 5673 5672 5670 5668 5667 5666 5665 5664 5663 5662 5660 5658 5656 5654
5697 5695 5694 5694 5692 5691 5691 5690 5688 5688 5684 5680 5677 5676 5676 5676 5675 5675 5674 5673 5673 5672 5671 5670 5669 5668 5666 5665 5663 5662 5661 5660 5659 5658 5656 5654 5652 5650
5694 5693 5692 5690 5689 5688 5687 5685 5684 5682 5679 5676 5673 5671 5670 5670 5669 5667 5666 5666 5667 5667 5666 5665 5664 5663 5661 5660 5659 5658 5657 5656 5655 5654 5652 5650 5648 5646
5689 5689 5689 5688 5688 5686 5685 5682 5681 5678 5674 5671 5668 5666 5664 5663 5662 5662 5660 5659 5660 5660 5659 5659 5658 5656 5655 5654 5653 5653 5652 5651 5650 5649 5648 5646 5644 5642
5685 5685 5685 5685 5685 5684 5683 5681 5680 5676 5671 5668 5665 5662 5661 5660 5659 5658 5654 5652 5651 5654 5651 5651 5651 5649 5649 5649 5648 5648 5647 5646 5645 5644 5642 5640 5638 5636
5681 5680 5681 5681 5680 5679 5678 5677 5676 5675 5673 5669 5664 5662 5660 5659 5656 5653 5650 5647 5647 5648 5645 5643 5644 5642 5643 5643 5643 5642 5641 5640 5639 5638 5637 5635 5633 5632
5677 5677 5676 5675 5675 5674 5673 5671 5670 5670 5669 5667 5664 5662 5660 5657 5654 5651 5647 5644 5643 5642 5641 5637 5637 5636 5638 5637 5637 5636 5636 5635 5634 5633 5631 5630 5628 5627
5673 5673 5672 5671 5671 5670 5668 5665 5664 5664 5665 5663 5661 5659 5656 5653 5650 5646 5641 5637 5634 5634 5634 5631 5630 5629 5629 5629 5630 5629 5628 5628 5627 5626 5625 5624 5622 5621
5667 5667 5667 5666 5665 5665 5662 5660 5658 5657 5657 5656 5654 5652 5650 5647 5645 5641 5637 5632 5628 5627 5628 5625 5623 5620 5619 5621 5621 5621 5620 5620 5620 5619 5618 5618 5616 5615
5661 5661 5662 5662 5660 5659 5658 5656 5654 5653 5650 5648 5646 5644 5643 5641 5639 5636 5633 5630 5625 5622 5623 5620 5616 5613 5611 5610 5612 5612 5612 5612 5612 5612 5611 5611 5610 5608
5656 5656 5657 5657 5655 5654 5652 5651 5649 5647 5644 5641 5639 5637 5635 5634 5633 5631 5629 5626 5624 5621 5619 5616 5611 5608 5604 5602 5602 5604 5604 5604 5604 5604 5604 5604 5603 5602
5653 5653 5652 5651 5649 5647 5646 5645 5642 5639 5636 5634 5632 5630 5630 5629 5627 5625 5623 5621 5619 5617 5614 5611 5608 5604 5600 5598 5597 5597 5597 5597 5598 5597 5597 5596 5596 5595
5647 5646 5645 5644 5642 5641 5639 5637 5635 5633 5630 5628 5626 5625 5624 5622 5620 5618 5615 5612 5610 5609 5609 5606 5603 5600 5597 5595 5593 5592 5592 5591 5592 5591 5590 5590 5590 5590
5640 5637 5635 5633 5632 5631 5630 5629 5628 5626 5624 5622 5620 5618 5616 5614 5612 5611 5608 5605 5602 5601 5600 5600 5598 5597 5595 5592 5589 5588 5587 5586 5586 5585 5584 5583 5583 5584
5633 5630 5627 5626 5625 5624 5622 5621 5620 5619 5618 5616 5614 5612 5610 5608 5606 5604 5602 5599 5597 5595 5594 5592 5590 5589 5587 5587 5587 5584 5583 5582 5581 5580 5578 5577 5577 5578
5626 5624 5622 5620 5619 5618 5616 5614 5613 5612 5611 5609 5607 5606 5604 5602 5600 5598 5596 5593 5591 5590 5589 5587 5584 5582 5579 5579 5581 5581 5578 5577 5575 5574 5573 5572 5572 5573
5620 5618 5616 5615 5613 5611 5609 5607 5606 5605 5603 5601 5600 5599 5598 5596 5593 5591 5590 5588 5586 5584 5583 5582 5580 5578 5576 5575 5575 5575 5575 5572 5570 5568 5567 5566 5566 5567
5614 5612 5610 5609 5606 5604 5602 5600 5599 5597 5596 5594 5593 5592 5591 5589 5587 5586 5585 5583 5581 5579 5577 5576 5577 5576 5574 5571 5568 5569 5570 5570 5568 5565 5563 5561 5560 5560
5608 5606 5604 5602 5599 5597 5595 5593 5591 5589 5588 5587 5586 5585 5584 5583 5581 5581 5580 5578 5576 5574 5573 5573 5572 5571 5568 5566 5564 5564 5564 5564 5563 5562 5561 5560 5557 5555
5602 5599 5597 5594 5592 5590 5588 5587 5585 5583 5582 5581 5580 5579 5578 5577 5576 5575 5574 5573 5571 5569 5568 5566 5565 5564 5563 5561 5560 5558 5558 5557 5556 5555 5555 5555 5555 5554